STARLINK-5917, 55942

Orbit data source: Space-Track

STARLINK-5917, 55942 is a payload satellite owned by SpaceX/Seattle (US) in LEO that was launched on Fri, 17 Mar 2023 UTC via an FALCON 9 launch vehicle from the Air Force Western Test Range (AFWTR). Payload-class satellites include a variety of spacecraft equipped with specific instruments for various scientific and technological missions. These include communications satellites like Starlink; space stations such as the ISS; scientific satellites like the Hubble; Earth observation satellites from companies like Planet Labs, Umbra, and HawkEye 360; GPS; miniature CubeSats for education and research; and military/defense satellites.

Loading next visibility...
Identifier
55942, 2023-037AE
Orbit
LEO
Last TLE update
21 hours ago
Origin
Manufacturer
SpaceX/Seattle
Mission
Operational Commercial Communications
Bus & Motor
STARLINK, Unknown motor
Mass
305 kg wet, ~290 kg dry
Launch date (UTC)
2023-03-17 (2 years ago)
Launch vehicle
FALCON 9
Launch site
Air Force Western Test Range (AFWTR)
Object type
Payload
Rocket body
Debris
Shape & HBR
Box + 1 Pan, 9 m
Radar Cross Section
11.087 m², Large (>1 m²)

Expand to show TLE details & history

TLE from 21 hours ago
0 STARLINK-5917
1 55942U 23037AE  25128.72718381 -.00001503  00000-0 -11826-3 0  9997
2 55942  69.9993 333.2182 0002954 269.2879  90.7942 14.98319298118305
Epoch: 2025-05-08T17:27Z
Definitive object data (Epoch: 2025-05-08T17:27:08.681Z)
Latitude
0.00003°
Longitude
-155.36149°
Altitude
574.542 km
Speed
7.574 km/s
True Right ascension
22h 12m 52s
True Declination
0° 00' 00"
Sunlit
Object was in daylight at TLE epoch
Visualization TLE readout
Latitude
36.24804°
Longitude
-142.17568°
Altitude
577.802 km
Speed
7.575 km/s
Apparent Right ascension
01h 39m 53s
Apparent Declination
1° 15' 38"
Sunlit
Object is in daylight
Visualization observer readout
Local Sidereal Time
22:37:24
Azimuth
121.144° SE
Elevation
33.395°
Doppler factor
1
Orbital elements
Apogee altitude
572.09 km
Perigee altitude
567.985 km
Semi-major axis
6,948.174 km
Eccentricity
0.0002954
Inclination
69.9993°
RAAN
333.2182°
Arg. of periapsis
269.2879°
True anomaly
90.82805°
Mean anomaly
90.7942°
Eccentric anomaly
90.81112°
Mean motion
3.74746 °/min
BSTAR
-0.00011826
Orbital period
96.07 mins
Loading maneuver chart data...
Loading SW <> Apogee altitude chart data...
Loading historical data...
Loading historical data...
Loading historical data...
Loading historical data...
Loading historical data...
Loading historical data...
Loading historical data...

STARLINK-5917 Visibility forecast

Observer location: undefined°, undefined°

Span
Click to sort rows by Start time (UTC) header in descending order
Start Az.
Max El. time (UTC)
Max El. Az.
Max El.
End time (UTC)
End Az.
4 mins2025-05-09 14:27:15.571Z121.78° SE2025-05-09 14:27:15.571Z121.78° SE28.574°2025-05-09 14:31:15.571Z44.383° NE
4 mins2025-05-09 16:04:15.571Z271.125° WNW2025-05-09 16:06:15.571Z308.448° NW19.435°2025-05-09 16:08:15.571Z343.247° N
7 mins2025-05-10 00:27:15.571Z341.186° N2025-05-10 00:30:15.571Z88.159° E43.899°2025-05-10 00:34:15.571Z151.166° SSE
|